Fort Worth Spinks, TX

10:02 AM CDT on July 23, 2017 (GMT -0500)
Fort Worth Spinks

Weather History for KFWS - September, 2012

Change the Weather History Date:

Tuesday, September 4, 2012

  Actual Average (KNFW) Record (KNFW)
Temperature  
Mean Temperature 88 °F -  
Max Temperature 100 °F 89 °F 107 °F (1998)
Min Temperature 77 °F 71 °F 60 °F (2010)
Cooling Degree Days 24    
Growing Degree Days 38 (Base 50)    
Moisture  
Dew Point 64 °F    
Average Humidity 53    
Maximum Humidity 78    
Minimum Humidity 29    
Precipitation  
Precipitation 0.00 in - - ()
Sea Level Pressure  
Sea Level Pressure 29.90 in    
Wind  
Wind Speed 8 mph (South)    
Max Wind Speed 13 mph    
Max Gust Speed -    
Visibility 10 miles    
Events      
Averages and records for this station are not official NWS values.
T = Trace of Precipitation, MM = Missing Value Source: NWS Daily Summary

Daily Weather History Graph

Daily Weather History Graph

Search for Another Location

Airport or City:

Trip Planner

Search our weather history database for the weather conditions in past years. The results will help you decide how hot, cold, wet, or windy it might be!

Date:

Astronomy

Sep. 04, 2012 Rise Set
Actual Time 7:06 AM CDT 7:49 PM CDT
Civil Twilight 6:41 AM CDT 8:14 PM CDT
Nautical Twilight 6:11 AM CDT 8:43 PM CDT
Astronomical Twilight 5:41 AM CDT 9:13 PM CDT
Moon 10:01 PM CDT (9/4) 10:56 AM CDT (9/4)
Length of Visible Light 13h 32m
Length of Day
12h 42m
Waning Gibbous, 83% of the Moon is Illuminated
Sep 4
Waning Gibbous
Sep 8
Last Quarter
Sep 15
New
Sep 22
First Quarter
Sep 29
Full

Hourly Weather History & Observations

Time (CDT) Temp. Heat Index Dew Point Humidity Pressure Visibility Wind Dir Wind Speed Gust Speed Precip Events Conditions
12:15 AM 82.4 °F 82.9 °F 60.8 °F 48% 29.92 in 10.0 mi South 8.1 mph - N/A   Clear
12:35 AM 82.4 °F 82.9 °F 60.8 °F 48% 29.92 in 10.0 mi South 8.1 mph - N/A   Clear
12:55 AM 82.4 °F 83.4 °F 62.6 °F 51% 29.92 in 10.0 mi SSW 8.1 mph - N/A   Clear
1:15 AM 82.4 °F 83.4 °F 62.6 °F 51% 29.92 in 10.0 mi SSW 8.1 mph - N/A   Clear
1:35 AM 82.4 °F 83.4 °F 62.6 °F 51% 29.92 in 10.0 mi SSW 6.9 mph - N/A   Clear
1:55 AM 82.4 °F 83.4 °F 62.6 °F 51% 29.91 in 10.0 mi South 8.1 mph - N/A   Clear
2:15 AM 82.4 °F 83.4 °F 62.6 °F 51% 29.91 in 10.0 mi South 8.1 mph - N/A   Clear
2:35 AM 80.6 °F 81.8 °F 62.6 °F 54% 29.91 in 10.0 mi South 6.9 mph - N/A   Clear
2:55 AM 80.6 °F 82.3 °F 64.4 °F 58% 29.91 in 10.0 mi South 9.2 mph - N/A   Clear
3:15 AM 80.6 °F 82.3 °F 64.4 °F 58% 29.91 in 10.0 mi South 9.2 mph - N/A   Clear
3:35 AM 80.6 °F 82.7 °F 66.2 °F 61% 29.91 in 10.0 mi South 9.2 mph - N/A   Clear
3:55 AM 80.6 °F 83.2 °F 68.0 °F 65% 29.91 in 10.0 mi South 8.1 mph - N/A   Clear
4:15 AM 80.6 °F 83.2 °F 68.0 °F 65% 29.92 in 10.0 mi South 8.1 mph - N/A   Clear
4:35 AM 78.8 °F - 68.0 °F 69% 29.92 in 10.0 mi South 8.1 mph - N/A   Clear
4:55 AM 78.8 °F - 68.0 °F 69% 29.92 in 10.0 mi South 5.8 mph - N/A   Clear
5:15 AM 77.0 °F - 68.0 °F 74% 29.92 in 10.0 mi South 5.8 mph - N/A   Clear
5:35 AM 77.0 °F - 68.0 °F 74% 29.92 in 10.0 mi South 5.8 mph - N/A   Clear
5:55 AM 77.0 °F - 68.0 °F 74% 29.93 in 10.0 mi South 5.8 mph - N/A   Clear
6:15 AM 77.0 °F - 68.0 °F 74% 29.93 in 10.0 mi South 6.9 mph - N/A   Clear
6:35 AM 77.0 °F - 68.0 °F 74% 29.93 in 10.0 mi South 4.6 mph - N/A   Clear
6:55 AM 77.0 °F - 69.8 °F 78% 29.94 in 10.0 mi South 6.9 mph - N/A   Clear
7:15 AM 77.0 °F - 69.8 °F 78% 29.95 in 10.0 mi South 8.1 mph - N/A   Clear
7:52 AM 78.8 °F - 69.8 °F 74% 29.95 in 10.0 mi South 11.5 mph - N/A   Clear
8:52 AM 82.4 °F 87.2 °F 71.6 °F 70% 29.95 in 10.0 mi South 9.2 mph - N/A   Clear
9:50 AM 84.2 °F 89.6 °F 71.6 °F 66% 29.96 in 10.0 mi SSW 10.4 mph - N/A   Clear
10:56 AM 91.4 °F 98.4 °F 71.6 °F 52% 29.96 in 10.0 mi SSW 12.7 mph - N/A   Clear
11:48 AM 93.2 °F 98.8 °F 69.8 °F 46% 29.95 in 10.0 mi SSW 8.1 mph - N/A   Clear
12:48 PM 96.8 °F 101.8 °F 68.0 °F 39% 29.93 in 10.0 mi South 8.1 mph - N/A   Clear
1:55 PM 98.6 °F 101.0 °F 64.4 °F 32% 29.90 in 10.0 mi SE 9.2 mph - N/A   Partly Cloudy
2:50 PM 100.4 °F 102.4 °F 62.6 °F 29% 29.89 in 10.0 mi SSE 9.2 mph - N/A   Partly Cloudy
3:48 PM 98.6 °F 99.4 °F 60.8 °F 29% 29.87 in 10.0 mi SE 4.6 mph - N/A   Scattered Clouds
5:47 PM 98.6 °F 99.4 °F 60.8 °F 29% 29.84 in 10.0 mi SE 6.9 mph - N/A   Partly Cloudy
6:46 PM 96.8 °F 98.0 °F 62.6 °F 32% 29.84 in 10.0 mi SE 5.8 mph - N/A   Clear
7:45 PM 91.4 °F 92.1 °F 62.6 °F 38% 29.82 in 10.0 mi SSE 4.6 mph - N/A   Clear
8:55 PM 86.0 °F 86.1 °F 60.8 °F 43% 29.83 in 10.0 mi SSE 6.9 mph - N/A   Clear
9:15 PM 86.0 °F 86.6 °F 62.6 °F 45% 29.84 in 10.0 mi SSE 5.8 mph - N/A   Clear
9:35 PM 82.4 °F 83.4 °F 62.6 °F 51% 29.84 in 10.0 mi SSE 4.6 mph - N/A   Clear
9:55 PM 82.4 °F 83.4 °F 62.6 °F 51% 29.84 in 10.0 mi SSE 5.8 mph - N/A   Clear
10:15 PM 82.4 °F 82.9 °F 60.8 °F 48% 29.85 in 10.0 mi South 8.1 mph - N/A   Clear
10:35 PM 86.0 °F 84.9 °F 57.2 °F 37% 29.85 in 10.0 mi South 9.2 mph - N/A   Clear
10:55 PM 86.0 °F 84.9 °F 57.2 °F 37% 29.85 in 10.0 mi South 9.2 mph - N/A   Clear
11:15 PM 86.0 °F 84.9 °F 57.2 °F 37% 29.86 in 10.0 mi South 9.2 mph - N/A   Clear
11:35 PM 86.0 °F 84.9 °F 57.2 °F 37% 29.86 in 10.0 mi South 8.1 mph - N/A   Clear
11:55 PM 86.0 °F 85.4 °F 59.0 °F 40% 29.86 in 10.0 mi South 9.2 mph - N/A   Clear